Location: Peebles
(55.6412°N, 3.1714°W)
Time: 00:44:00
(UTC+01:00)

deb r/b Ablestar - Pass Details

Date: 08 July 2022
Orbit: 859 x 1154 km, 67.2° (Epoch: 13 August)

Event Time Altitude Azimuth Distance (km) Brightness Sun altitude
Rises 02:21:55 0° 317° (NW) 4,027 ? -10.7°
Reaches altitude 10° 02:25:11 10° 304° (NW) 3,065 ? -10.6°
Maximum altitude 02:30:42 24° 255° (WSW) 2,190 ? -10.3°
Enters shadow 02:35:34 12° 209° (SSW) 2,859 ? -10.1°
